When you browse on this site, cookies collect data to enhance your experience and personalize the content and advertising you see.
Visit our Privacy Policy to learn more. By continuing to use the site, you agree to this use of cookies and data.

Hourly Weather Salaberry-de-Valleyfield

Today, 10 August, Monday

Time Temperature Precipitation Wind Pressure Humidity
00:00 +20°C° 0 mm 1 mps 757 mmHg 95%
01:00 +20°C° 0 mm 1 mps 757 mmHg 96%
02:00 +20°C° 0 mm 1 mps 757 mmHg 97%
03:00 +20°C° 0 mm 1 mps 757 mmHg 97%
04:00 +20°C° 0 mm 1 mps 757 mmHg 98%
05:00 +20°C° 0 mm 1 mps 757 mmHg 97%
06:00 +21°C° 0 mm 1 mps 757 mmHg 96%
07:00 +22°C° 0 mm 1 mps 758 mmHg 95%
08:00 +23°C° 0 mm 1 mps 757 mmHg 92%
09:00 +24°C° 0 mm 1 mps 757 mmHg 89%
10:00 +24°C° 0 mm 1 mps 756 mmHg 86%
11:00 +26°C° 0 mm 1 mps 756 mmHg 83%
12:00 +27°C° 0 mm 2 mps 756 mmHg 80%
13:00 +28°C° 0 mm 2 mps 756 mmHg 77%
14:00 +28°C° 0.1 mm 2 mps 756 mmHg 77%
15:00 +29°C° 0.1 mm 2 mps 755 mmHg 77%
16:00 +29°C° 0.1 mm 1 mps 755 mmHg 77%
17:00 +28°C° 0.2 mm 2 mps 755 mmHg 81%
18:00 +27°C° 0.2 mm 2 mps 755 mmHg 85%
19:00 +26°C° 0.2 mm 2 mps 755 mmHg 90%
20:00 +25°C° 0.3 mm 2 mps 755 mmHg 91%
21:00 +25°C° 0.3 mm 3 mps 755 mmHg 92%
22:00 +24°C° 0.3 mm 3 mps 755 mmHg 93%
23:00 +24°C° 0.3 mm 3 mps 755 mmHg 93%

Tomorrow, 11 August, Tuesday

Time Temperature Precipitation Wind Pressure Humidity
00:00 +24°C° 0.3 mm 3 mps 755 mmHg 93%
01:00 +22°C° 0.3 mm 3 mps 755 mmHg 94%
02:00 +22°C° 0 mm 3 mps 754 mmHg 94%
03:00 +22°C° 0 mm 3 mps 754 mmHg 94%
04:00 +23°C° 0 mm 2 mps 754 mmHg 94%
05:00 +22°C° 0 mm 3 mps 754 mmHg 92%
06:00 +24°C° 0 mm 3 mps 754 mmHg 91%
07:00 +25°C° 0 mm 3 mps 754 mmHg 89%
08:00 +26°C° 0.2 mm 3 mps 754 mmHg 84%
09:00 +28°C° 0.2 mm 3 mps 754 mmHg 78%
10:00 +30°C° 0.2 mm 3 mps 754 mmHg 73%
11:00 +30°C° 0.8 mm 3 mps 754 mmHg 73%
12:00 +31°C° 0.8 mm 3 mps 754 mmHg 72%
13:00 +31°C° 0.8 mm 3 mps 753 mmHg 72%
14:00 +31°C° 0.2 mm 2 mps 753 mmHg 74%
15:00 +31°C° 0.2 mm 2 mps 753 mmHg 76%
16:00 +30°C° 0.2 mm 1 mps 753 mmHg 78%
17:00 +29°C° 0.4 mm 1 mps 753 mmHg 80%
18:00 +28°C° 0.4 mm 2 mps 753 mmHg 81%
19:00 +27°C° 0.4 mm 2 mps 753 mmHg 83%
20:00 +26°C° 0.3 mm 3 mps 753 mmHg 86%
21:00 +25°C° 0.3 mm 3 mps 753 mmHg 89%
22:00 +23°C° 0.3 mm 4 mps 754 mmHg 92%
23:00 +22°C° 0 mm 3 mps 754 mmHg 94%

Day after tomorrow, 12 August, Wednesday

Time Temperature Precipitation Wind Pressure Humidity
00:00 +22°C° 0 mm 3 mps 754 mmHg 95%
01:00 +21°C° 0 mm 3 mps 754 mmHg 96%
02:00 +21°C° 0 mm 3 mps 755 mmHg 96%
03:00 +20°C° 0 mm 3 mps 755 mmHg 96%
04:00 +20°C° 0 mm 3 mps 756 mmHg 96%
05:00 +20°C° 0 mm 3 mps 756 mmHg 94%
06:00 +20°C° 0 mm 3 mps 757 mmHg 93%
07:00 +21°C° 0 mm 3 mps 758 mmHg 91%
08:00 +22°C° 0 mm 3 mps 758 mmHg 86%
09:00 +24°C° 0 mm 3 mps 758 mmHg 81%
10:00 +25°C° 0 mm 3 mps 758 mmHg 75%
11:00 +26°C° 0 mm 3 mps 758 mmHg 71%
12:00 +27°C° 0 mm 4 mps 758 mmHg 67%
13:00 +28°C° 0 mm 4 mps 758 mmHg 64%
14:00 +28°C° 0 mm 4 mps 758 mmHg 66%
15:00 +28°C° 0 mm 4 mps 758 mmHg 68%
16:00 +28°C° 0 mm 4 mps 758 mmHg 70%
17:00 +26°C° 0 mm 3 mps 758 mmHg 72%
18:00 +25°C° 0 mm 3 mps 759 mmHg 74%
19:00 +22°C° 0 mm 3 mps 759 mmHg 76%
20:00 +21°C° 0 mm 2 mps 760 mmHg 76%
21:00 +21°C° 0 mm 2 mps 760 mmHg 75%
22:00 +20°C° 0 mm 2 mps 760 mmHg 75%
23:00 +19°C° 0 mm 2 mps 760 mmHg 76%

13 August, Thursday

Time Temperature Precipitation Wind Pressure Humidity
00:00 +19°C° 0 mm 2 mps 760 mmHg 77%
01:00 +18°C° 0 mm 2 mps 761 mmHg 77%
02:00 +18°C° 0 mm 2 mps 761 mmHg 78%
03:00 +17°C° 0 mm 2 mps 761 mmHg 79%
04:00 +18°C° 0 mm 1 mps 761 mmHg 80%
05:00 +19°C° 0 mm 1 mps 762 mmHg 80%
06:00 +20°C° 0 mm 1 mps 762 mmHg 80%
07:00 +21°C° 0 mm 1 mps 762 mmHg 79%
08:00 +22°C° 0 mm 1 mps 762 mmHg 75%
09:00 +24°C° 0 mm 1 mps 762 mmHg 71%
10:00 +26°C° 0 mm 1 mps 762 mmHg 66%
11:00 +27°C° 0 mm 1 mps 762 mmHg 63%
12:00 +28°C° 0 mm 1 mps 762 mmHg 60%
13:00 +29°C° 0 mm 1 mps 761 mmHg 56%
14:00 +29°C° 0 mm 1 mps 761 mmHg 58%
15:00 +29°C° 0 mm 1 mps 761 mmHg 59%
16:00 +29°C° 0 mm 1 mps 761 mmHg 61%
17:00 +27°C° 0 mm 2 mps 761 mmHg 65%
18:00 +25°C° 0 mm 2 mps 761 mmHg 69%
19:00 +23°C° 0 mm 2 mps 762 mmHg 73%
20:00 +21°C° 0 mm 2 mps 762 mmHg 76%
21:00 +20°C° 0 mm 2 mps 762 mmHg 79%
22:00 +19°C° 0 mm 2 mps 763 mmHg 81%
23:00 +19°C° 0 mm 2 mps 763 mmHg 83%

14 August, Friday

Time Temperature Precipitation Wind Pressure Humidity
00:00 +18°C° 0 mm 2 mps 762 mmHg 85%
01:00 +18°C° 0 mm 2 mps 762 mmHg 87%
02:00 +18°C° 0 mm 2 mps 762 mmHg 86%
03:00 +17°C° 0 mm 2 mps 762 mmHg 86%
04:00 +17°C° 0 mm 3 mps 762 mmHg 86%
05:00 +17°C° 0 mm 3 mps 762 mmHg 84%
06:00 +18°C° 0 mm 3 mps 763 mmHg 82%
07:00 +18°C° 0 mm 3 mps 763 mmHg 80%
08:00 +19°C° 0 mm 4 mps 763 mmHg 77%
09:00 +21°C° 0 mm 4 mps 763 mmHg 73%
10:00 +22°C° 0 mm 4 mps 763 mmHg 69%
11:00 +23°C° 0 mm 4 mps 762 mmHg 67%
12:00 +25°C° 0 mm 3 mps 762 mmHg 66%
13:00 +26°C° 0 mm 3 mps 762 mmHg 64%
14:00 +26°C° 0 mm 3 mps 761 mmHg 65%
15:00 +26°C° 0 mm 3 mps 761 mmHg 66%
16:00 +26°C° 0 mm 3 mps 761 mmHg 67%
17:00 +24°C° 0 mm 3 mps 761 mmHg 72%
18:00 +21°C° 0 mm 3 mps 761 mmHg 77%
19:00 +19°C° 0 mm 2 mps 761 mmHg 82%
20:00 +19°C° 0 mm 2 mps 761 mmHg 84%
21:00 +18°C° 0 mm 2 mps 761 mmHg 86%
22:00 +17°C° 0 mm 2 mps 762 mmHg 87%
23:00 +17°C° 0 mm 2 mps 762 mmHg 87%

15 August, Saturday

Time Temperature Precipitation Wind Pressure Humidity
00:00 +17°C° 0 mm 2 mps 761 mmHg 87%
01:00 +17°C° 0 mm 2 mps 761 mmHg 87%
02:00 +17°C° 0 mm 2 mps 761 mmHg 87%
03:00 +16°C° 0 mm 2 mps 761 mmHg 88%
04:00 +16°C° 0 mm 2 mps 761 mmHg 89%
05:00 +17°C° 0 mm 3 mps 761 mmHg 88%
06:00 +17°C° 0 mm 3 mps 761 mmHg 87%
07:00 +18°C° 0 mm 3 mps 761 mmHg 86%
08:00 +20°C° 0 mm 3 mps 761 mmHg 82%
09:00 +21°C° 0 mm 2 mps 761 mmHg 79%
10:00 +24°C° 0 mm 2 mps 761 mmHg 76%
11:00 +25°C° 0 mm 2 mps 761 mmHg 74%
12:00 +27°C° 0 mm 2 mps 761 mmHg 72%
13:00 +28°C° 0 mm 2 mps 760 mmHg 69%
14:00 +28°C° 0 mm 2 mps 760 mmHg 70%
15:00 +28°C° 0 mm 2 mps 760 mmHg 70%
16:00 +28°C° 0 mm 3 mps 760 mmHg 70%
17:00 +27°C° 0 mm 3 mps 760 mmHg 73%
18:00 +25°C° 0 mm 3 mps 760 mmHg 76%
19:00 +24°C° 0 mm 3 mps 760 mmHg 79%
20:00 +22°C° 0 mm 3 mps 760 mmHg 78%
21:00 +22°C° 0 mm 3 mps 760 mmHg 77%
22:00 +21°C° 0 mm 3 mps 760 mmHg 76%
23:00 +21°C° 0 mm 2 mps 760 mmHg 75%
Show more